| time (UTC) | temp F | wind direction | speed MPH | gust MPH | rain 1hr in | rain 24hr in | rain mn in | humidity % | barometer mb |
| 20260503003331 | 72 | 71 | 0.0 | 2.0 | 0.00 | 0.00 | 0.00 | 44 | 1021.3 |
| 20260503002338 | 73 | 69 | 1.0 | 5.0 | 0.00 | 0.00 | 0.00 | 41 | 1021.5 |
| 20260503001346 | 74 | 32 | 0.0 | 3.0 | 0.00 | 0.00 | 0.00 | 40 | 1021.5 |
| 20260503000422 | 74 | 344 | 0.0 | 2.0 | 0.00 | 0.00 | 0.00 | 41 | 1021.5 |
| 20260502235351 | 74 | 348 | 0.0 | 3.0 | 0.00 | 0.00 | 0.00 | 41 | 1021.5 |
| 20260502234414 | 74 | 32 | 1.0 | 7.0 | 0.00 | 0.00 | 0.00 | 38 | 1021.3 |
| 20260502233353 | 75 | 23 | 1.0 | 4.0 | 0.00 | 0.00 | 0.00 | 37 | 1021.4 |
| 20260502232326 | 75 | 59 | 0.0 | 5.0 | 0.00 | 0.00 | 0.00 | 40 | 1021.3 |
| 20260502231348 | 74 | 333 | 1.0 | 7.0 | 0.00 | 0.00 | 0.00 | 42 | 1021.5 |
| 20260502230417 | 74 | 342 | 1.0 | 6.0 | 0.00 | 0.00 | 0.00 | 39 | 1021.4 |
| 20260502225345 | 74 | 11 | 0.0 | 3.0 | 0.00 | 0.00 | 0.00 | 41 | 1021.2 |
| 20260502224413 | 74 | 42 | 1.0 | 10.0 | 0.00 | 0.00 | 0.00 | 41 | 1021.2 |
| 20260502223325 | 74 | 70 | 4.0 | 11.0 | 0.00 | 0.00 | 0.00 | 40 | 1021.1 |
| 20260502222358 | 75 | 340 | 0.0 | 8.0 | 0.00 | 0.00 | 0.00 | 41 | 1021.2 |
| 20260502221326 | 74 | 94 | 1.0 | 6.0 | 0.00 | 0.00 | 0.00 | 41 | 1021.2 |
| 20260502215355 | 74 | 71 | 4.0 | 10.0 | 0.00 | 0.09 | 0.00 | 41 | 1021.3 |
| 20260502214422 | 74 | 76 | 2.0 | 11.0 | 0.00 | 0.09 | 0.00 | 43 | 1021.4 |
| 20260502213349 | 74 | 70 | 2.0 | 11.0 | 0.00 | 0.09 | 0.00 | 41 | 1021.5 |
| 20260502212401 | 74 | 16 | 1.0 | 13.0 | 0.00 | 0.09 | 0.00 | 44 | 1021.7 |
| 20260502211330 | 74 | 40 | 3.0 | 8.0 | 0.00 | 0.09 | 0.00 | 42 | 1021.8 |
| 20260502210343 | 74 | 53 | 2.0 | 11.0 | 0.00 | 0.09 | 0.00 | 44 | 1022.1 |
| 20260502205411 | 74 | 90 | 1.0 | 7.0 | 0.00 | 0.23 | 0.00 | 45 | 1022.3 |
| 20260502204333 | 73 | 5 | 1.0 | 6.0 | 0.00 | 0.23 | 0.00 | 44 | 1022.4 |
| 20260502203420 | 74 | 32 | 1.0 | 10.0 | 0.00 | 0.23 | 0.00 | 46 | 1022.5 |
| 20260502202342 | 73 | 68 | 1.0 | 5.0 | 0.00 | 0.23 | 0.00 | 44 | 1022.6 |
| 20260502201418 | 73 | 310 | 2.0 | 6.0 | 0.00 | 0.23 | 0.00 | 47 | 1022.8 |
| 20260502200325 | 72 | 314 | 1.0 | 5.0 | 0.00 | 0.23 | 0.00 | 48 | 1022.8 |
| 20260502195401 | 72 | 89 | 3.0 | 12.0 | 0.00 | 0.24 | 0.00 | 46 | 1022.9 |
| 20260502194416 | 72 | 5 | 2.0 | 6.0 | 0.00 | 0.24 | 0.00 | 46 | 1023.0 |
| 20260502193346 | 72 | 51 | 3.0 | 11.0 | 0.00 | 0.24 | 0.00 | 50 | 1023.0 |
| 20260502192409 | 72 | 53 | 2.0 | 7.0 | 0.00 | 0.24 | 0.00 | 45 | 1023.0 |
| 20260502191335 | 72 | 55 | 1.0 | 5.0 | 0.00 | 0.24 | 0.00 | 50 | 1023.0 |
| 20260502190342 | 71 | 360 | 1.0 | 9.0 | 0.00 | 0.24 | 0.00 | 51 | 1023.1 |
| 20260502185411 | 71 | 345 | 1.0 | 6.0 | 0.00 | 0.27 | 0.00 | 52 | 1023.4 |
| 20260502184416 | 70 | 341 | 2.0 | 5.0 | 0.00 | 0.27 | 0.00 | 52 | 1023.4 |
| 20260502183420 | 69 | 82 | 2.0 | 9.0 | 0.00 | 0.27 | 0.00 | 54 | 1023.4 |
| 20260502181343 | 70 | 338 | 1.0 | 6.0 | 0.00 | 0.27 | 0.00 | 58 | 1023.7 |
| 20260502180415 | 70 | 29 | 3.0 | 10.0 | 0.00 | 0.27 | 0.00 | 56 | 1023.7 |
| 20260502170416 | 68 | 5 | 1.0 | 8.0 | 0.00 | 0.48 | 0.00 | 60 | 1024.6 |
| 20260502162353 | 66 | 340 | 2.0 | 9.0 | 0.00 | 0.49 | 0.00 | 62 | 1024.8 |
| 20260502161421 | 66 | 55 | 1.0 | 8.0 | 0.00 | 0.49 | 0.00 | 60 | 1024.9 |
| 20260502151333 | 63 | 55 | 2.0 | 9.0 | 0.00 | 0.53 | 0.00 | 67 | 1024.4 |
| 20260502130356 | 51 | 345 | 0.0 | 1.0 | 0.00 | 0.65 | 0.00 | 96 | 1023.2 |
| 20260502123413 | 45 | 345 | 0.0 | 0.0 | 0.00 | 0.68 | 0.00 | 95 | 1022.8 |
| 20260502122350 | 44 | 345 | 0.0 | 0.0 | 0.00 | 0.68 | 0.00 | 95 | 1022.7 |
| 20260502121411 | 44 | 345 | 0.0 | 1.0 | 0.00 | 0.68 | 0.00 | 94 | 1022.5 |
| 20260502120340 | 44 | 345 | 0.0 | 0.0 | 0.00 | 0.68 | 0.00 | 94 | 1022.1 |
| 20260502115414 | 44 | 345 | 0.0 | 0.0 | 0.00 | 0.76 | 0.00 | 94 | 1022.0 |
| 20260502114324 | 44 | 345 | 0.0 | 0.0 | 0.00 | 0.76 | 0.00 | 94 | 1022.0 |
| 20260502113351 | 44 | 345 | 0.0 | 0.0 | 0.00 | 0.76 | 0.00 | 94 | 1022.0 |
| 20260502112413 | 44 | 345 | 0.0 | 0.0 | 0.00 | 0.76 | 0.00 | 94 | 1021.9 |
| 20260502111334 | 45 | 345 | 0.0 | 1.0 | 0.00 | 0.76 | 0.00 | 94 | 1021.8 |
| 20260502110338 | 45 | 345 | 0.0 | 0.0 | 0.00 | 0.76 | 0.00 | 94 | 1021.8 |
| 20260502105354 | 45 | 345 | 0.0 | 0.0 | 0.00 | 0.99 | 0.00 | 94 | 1021.8 |
| 20260502104325 | 45 | 345 | 0.0 | 0.0 | 0.00 | 0.99 | 0.00 | 93 | 1021.6 |
| 20260502103329 | 45 | 345 | 0.0 | 0.0 | 0.00 | 0.99 | 0.00 | 93 | 1021.4 |
| 20260502102351 | 46 | 345 | 0.0 | 0.0 | 0.00 | 0.99 | 0.00 | 94 | 1021.4 |
| 20260502101358 | 46 | 345 | 0.0 | 0.0 | 0.00 | 0.99 | 0.00 | 93 | 1021.3 |
| 20260502100422 | 46 | 345 | 0.0 | 0.0 | 0.00 | 0.99 | 0.00 | 93 | 1021.1 |
| 20260502091347 | 48 | 345 | 0.0 | 0.0 | 0.00 | 1.15 | 0.00 | 93 | 1020.1 |
| 20260502090402 | 48 | 345 | 0.0 | 1.0 | 0.00 | 1.15 | 0.00 | 93 | 1020.1 |
| 20260502071420 | 50 | 345 | 0.0 | 0.0 | 0.00 | 1.48 | 0.00 | 93 | 1019.6 |
| 20260502070336 | 50 | 345 | 0.0 | 0.0 | 0.00 | 1.48 | 0.00 | 92 | 1019.7 |
| 20260502065329 | 50 | 345 | 0.0 | 2.0 | 0.00 | 1.60 | 0.00 | 92 | 1019.8 |
| 20260502064333 | 51 | 327 | 0.0 | 0.0 | 0.00 | 1.60 | 0.00 | 93 | 1019.9 |
| 20260502063344 | 51 | 327 | 0.0 | 1.0 | 0.00 | 1.60 | 0.00 | 93 | 1019.7 |
| 20260502062328 | 51 | 355 | 0.0 | 2.0 | 0.00 | 1.60 | 0.00 | 92 | 1019.6 |
| 20260502061331 | 51 | 355 | 0.0 | 0.0 | 0.00 | 1.60 | 0.00 | 92 | 1019.7 |
| 20260502060343 | 51 | 355 | 0.0 | 1.0 | 0.00 | 1.60 | 0.00 | 92 | 1019.8 |
| 20260502055327 | 51 | 13 | 0.0 | 1.0 | 0.00 | 1.90 | 0.00 | 92 | 1019.7 |
| 20260502054330 | 51 | 32 | 0.0 | 1.0 | 0.00 | 1.90 | 0.00 | 91 | 1019.7 |
| 20260502053340 | 51 | 28 | 0.0 | 3.0 | 0.00 | 1.90 | 0.00 | 91 | 1019.8 |
| 20260502052323 | 52 | 355 | 0.0 | 1.0 | 0.00 | 1.90 | 0.00 | 91 | 1020.0 |
| 20260502051326 | 52 | 355 | 0.0 | 1.0 | 0.00 | 1.90 | 0.00 | 90 | 1020.1 |
| 20260502050337 | 52 | 355 | 0.0 | 2.0 | 0.00 | 1.90 | 0.00 | 90 | 1020.0 |
| 20260502045416 | 52 | 5 | 0.0 | 1.0 | 0.00 | 1.90 | 1.90 | 90 | 1019.9 |
| 20260502044332 | 52 | 9 | 0.0 | 2.0 | 0.00 | 1.90 | 1.90 | 90 | 1019.8 |
| 20260502043342 | 53 | 33 | 0.0 | 4.0 | 0.00 | 1.90 | 1.90 | 90 | 1019.8 |
| 20260502042355 | 53 | 27 | 1.0 | 3.0 | 0.00 | 1.90 | 1.90 | 90 | 1019.6 |
| 20260502041359 | 53 | 5 | 1.0 | 5.0 | 0.00 | 1.90 | 1.90 | 89 | 1019.5 |
| 20260502040331 | 53 | 355 | 1.0 | 4.0 | 0.00 | 1.90 | 1.90 | 89 | 1019.5 |
| 20260502035400 | 53 | 30 | 1.0 | 4.0 | 0.00 | 1.90 | 1.90 | 88 | 1019.5 |
| 20260502034406 | 53 | 38 | 1.0 | 6.0 | 0.00 | 1.90 | 1.90 | 89 | 1019.5 |
| 20260502033337 | 53 | 17 | 2.0 | 8.0 | 0.00 | 1.90 | 1.90 | 89 | 1019.4 |
| 20260502032408 | 53 | 29 | 2.0 | 6.0 | 0.00 | 1.90 | 1.90 | 90 | 1019.4 |
| 20260502031337 | 53 | 29 | 1.0 | 4.0 | 0.00 | 1.90 | 1.90 | 90 | 1019.3 |
| 20260502030410 | 53 | 330 | 1.0 | 6.0 | 0.00 | 1.90 | 1.90 | 91 | 1019.0 |
| 20260502025327 | 53 | 18 | 1.0 | 8.0 | 0.00 | 1.90 | 1.90 | 90 | 1018.9 |
| 20260502024402 | 53 | 355 | 2.0 | 4.0 | 0.00 | 1.90 | 1.90 | 90 | 1018.7 |
| 20260502023418 | 53 | 48 | 1.0 | 5.0 | 0.00 | 1.90 | 1.90 | 90 | 1018.5 |
| 20260502015352 | 53 | 43 | 2.0 | 9.0 | 0.00 | 1.90 | 1.90 | 91 | 1017.9 |
| 20260502014421 | 53 | 315 | 1.0 | 9.0 | 0.00 | 1.90 | 1.90 | 91 | 1017.7 |
| 20260502013340 | 54 | 323 | 3.0 | 13.0 | 0.00 | 1.90 | 1.90 | 92 | 1017.6 |
| 20260502012406 | 54 | 355 | 3.0 | 9.0 | 0.00 | 1.90 | 1.90 | 92 | 1017.6 |
| 20260502011420 | 54 | 342 | 2.0 | 8.0 | 0.00 | 1.90 | 1.90 | 93 | 1017.5 |
| 20260502005347 | 55 | 87 | 1.0 | 10.0 | 0.00 | 1.90 | 1.90 | 94 | 1017.0 |
| 20260502004417 | 55 | 64 | 2.0 | 6.0 | 0.00 | 1.90 | 1.90 | 94 | 1016.9 |